Year,Month,Day,Hour,Minute,Value (Times are PST for temperature in C)
2016,06,19,00,00,12.70
2016,06,19,00,01,12.60
2016,06,19,00,02,12.60
2016,06,19,00,03,12.60
2016,06,19,00,04,12.60
2016,06,19,00,05,12.60
2016,06,19,00,06,12.60
2016,06,19,00,07,12.60
2016,06,19,00,08,12.60
2016,06,19,00,09,12.60
2016,06,19,00,10,12.60
2016,06,19,00,11,12.60
2016,06,19,00,12,12.60
2016,06,19,00,13,12.60
2016,06,19,00,14,12.60
2016,06,19,00,15,12.60
2016,06,19,00,16,12.60
2016,06,19,00,17,12.60
2016,06,19,00,18,12.60
2016,06,19,00,19,12.60
2016,06,19,00,20,12.60
2016,06,19,00,21,12.60
2016,06,19,00,22,12.60
2016,06,19,00,23,12.60
2016,06,19,00,24,12.60
2016,06,19,00,25,12.60
2016,06,19,00,26,12.60
2016,06,19,00,27,12.60
2016,06,19,00,28,12.60
2016,06,19,00,29,12.60
2016,06,19,00,30,12.60
2016,06,19,00,31,12.60
2016,06,19,00,32,12.60
2016,06,19,00,33,12.60
2016,06,19,00,34,12.60
2016,06,19,00,35,12.60
2016,06,19,00,36,12.60
2016,06,19,00,37,12.60
2016,06,19,00,38,12.60
2016,06,19,00,39,12.60
2016,06,19,00,40,12.60
2016,06,19,00,41,12.60
2016,06,19,00,42,12.60
2016,06,19,00,43,12.60
2016,06,19,00,44,12.60
2016,06,19,00,45,12.60
2016,06,19,00,46,12.60
2016,06,19,00,47,12.60
2016,06,19,00,48,12.60
2016,06,19,00,49,12.60
2016,06,19,00,50,12.60
2016,06,19,00,51,12.60
2016,06,19,00,52,12.60
2016,06,19,00,53,12.60
2016,06,19,00,54,12.60
2016,06,19,00,55,12.60
2016,06,19,00,56,12.60
2016,06,19,00,57,12.60
2016,06,19,00,58,12.60
2016,06,19,00,59,12.60
2016,06,19,01,00,12.60
2016,06,19,01,01,12.60
2016,06,19,01,02,12.60
2016,06,19,01,03,12.60
2016,06,19,01,04,12.60
2016,06,19,01,05,12.50
2016,06,19,01,06,12.50
2016,06,19,01,07,12.50
2016,06,19,01,08,12.50
2016,06,19,01,09,12.50
2016,06,19,01,10,12.50
2016,06,19,01,11,12.50
2016,06,19,01,12,12.50
2016,06,19,01,13,12.50
2016,06,19,01,14,12.50
2016,06,19,01,15,12.50
2016,06,19,01,16,12.40
2016,06,19,01,17,12.40
2016,06,19,01,18,12.40
2016,06,19,01,19,12.40
2016,06,19,01,20,12.40
2016,06,19,01,21,12.40
2016,06,19,01,22,12.40
2016,06,19,01,23,12.40
2016,06,19,01,24,12.40
2016,06,19,01,25,12.40
2016,06,19,01,26,12.40
2016,06,19,01,27,12.40
2016,06,19,01,28,12.40
2016,06,19,01,29,12.40
2016,06,19,01,30,12.40
2016,06,19,01,31,12.40
2016,06,19,01,32,12.40
2016,06,19,01,33,12.30
2016,06,19,01,34,12.30
2016,06,19,01,35,12.30
2016,06,19,01,36,12.30
2016,06,19,01,37,12.30
2016,06,19,01,38,12.30
2016,06,19,01,39,12.20
2016,06,19,01,40,12.20
2016,06,19,01,41,12.20
2016,06,19,01,42,12.10
2016,06,19,01,43,12.10
2016,06,19,01,44,12.10
2016,06,19,01,45,12.10
2016,06,19,01,46,12.00
2016,06,19,01,47,12.00
2016,06,19,01,48,12.00
2016,06,19,01,49,11.90
2016,06,19,01,50,11.90
2016,06,19,01,51,11.90
2016,06,19,01,52,11.90
2016,06,19,01,53,11.90
2016,06,19,01,54,11.90
2016,06,19,01,55,11.80
2016,06,19,01,56,11.80
2016,06,19,01,57,11.80
2016,06,19,01,58,11.80
2016,06,19,01,59,11.80
2016,06,19,02,00,11.80
2016,06,19,02,01,11.80
2016,06,19,02,02,11.80
2016,06,19,02,03,11.80
2016,06,19,02,04,11.80
2016,06,19,02,05,11.80
2016,06,19,02,06,11.80
2016,06,19,02,07,11.90
2016,06,19,02,08,11.90
2016,06,19,02,09,11.90
2016,06,19,02,10,11.90
2016,06,19,02,11,11.90
2016,06,19,02,12,11.90
2016,06,19,02,13,11.90
2016,06,19,02,14,11.90
2016,06,19,02,15,12.00
2016,06,19,02,16,12.00
2016,06,19,02,17,12.00
2016,06,19,02,18,12.00
2016,06,19,02,19,12.00
2016,06,19,02,20,12.00
2016,06,19,02,21,12.00
2016,06,19,02,22,11.90
2016,06,19,02,23,11.90
2016,06,19,02,24,11.90
2016,06,19,02,25,11.80
2016,06,19,02,26,11.80
2016,06,19,02,27,11.80
2016,06,19,02,28,11.80
2016,06,19,02,29,11.70
2016,06,19,02,30,11.70
2016,06,19,02,31,11.70
2016,06,19,02,32,11.70
2016,06,19,02,33,11.70
2016,06,19,02,34,11.70
2016,06,19,02,35,11.70
2016,06,19,02,36,11.70
2016,06,19,02,37,11.70
2016,06,19,02,38,11.70
2016,06,19,02,39,11.60
2016,06,19,02,40,11.60
2016,06,19,02,41,11.60
2016,06,19,02,42,11.60
2016,06,19,02,43,11.60
2016,06,19,02,44,11.60
2016,06,19,02,45,11.60
2016,06,19,02,46,11.60
2016,06,19,02,47,11.60
2016,06,19,02,48,11.60
2016,06,19,02,49,11.60
2016,06,19,02,50,11.60
2016,06,19,02,51,11.60
2016,06,19,02,52,11.60
2016,06,19,02,53,11.60
2016,06,19,02,54,11.60
2016,06,19,02,55,11.60
2016,06,19,02,56,11.60
2016,06,19,02,57,11.60
2016,06,19,02,58,11.60
2016,06,19,02,59,11.60
2016,06,19,03,00,11.60
2016,06,19,03,01,11.50
2016,06,19,03,02,11.50
2016,06,19,03,03,11.50
2016,06,19,03,04,11.50
2016,06,19,03,05,11.40
2016,06,19,03,06,11.40
2016,06,19,03,07,11.40
2016,06,19,03,08,11.40
2016,06,19,03,09,11.40
2016,06,19,03,10,11.40
2016,06,19,03,11,11.40
2016,06,19,03,12,11.30
2016,06,19,03,13,11.30
2016,06,19,03,14,11.30
2016,06,19,03,15,11.30
2016,06,19,03,16,11.30
2016,06,19,03,17,11.30
2016,06,19,03,18,11.30
2016,06,19,03,19,11.30
2016,06,19,03,20,11.30
2016,06,19,03,21,11.30
2016,06,19,03,22,11.30
2016,06,19,03,23,11.30
2016,06,19,03,24,11.30
2016,06,19,03,25,11.30
2016,06,19,03,26,11.30
2016,06,19,03,27,11.30
2016,06,19,03,28,11.30
2016,06,19,03,29,11.30
2016,06,19,03,30,11.30
2016,06,19,03,31,11.30
2016,06,19,03,32,11.20
2016,06,19,03,33,11.20
2016,06,19,03,34,11.20
2016,06,19,03,35,11.20
2016,06,19,03,36,11.20
2016,06,19,03,37,11.20
2016,06,19,03,38,11.20
2016,06,19,03,39,11.20
2016,06,19,03,40,11.20
2016,06,19,03,41,11.20
2016,06,19,03,42,11.20
2016,06,19,03,43,11.10
2016,06,19,03,44,11.10
2016,06,19,03,45,11.10
2016,06,19,03,46,11.10
2016,06,19,03,47,11.10
2016,06,19,03,48,11.10
2016,06,19,03,49,11.00
2016,06,19,03,50,11.00
2016,06,19,03,51,11.00
2016,06,19,03,52,11.00
2016,06,19,03,53,11.00
2016,06,19,03,54,10.90
2016,06,19,03,55,10.90
2016,06,19,03,56,10.90
2016,06,19,03,57,10.90
2016,06,19,03,58,10.90
2016,06,19,03,59,10.90
2016,06,19,04,00,10.90
2016,06,19,04,01,10.90
2016,06,19,04,02,10.90
2016,06,19,04,03,10.80
2016,06,19,04,04,10.80
2016,06,19,04,05,10.80
2016,06,19,04,06,10.80
2016,06,19,04,07,10.80
2016,06,19,04,08,10.80
2016,06,19,04,09,10.80
2016,06,19,04,10,10.80
2016,06,19,04,11,10.80
2016,06,19,04,12,10.80
2016,06,19,04,13,10.80
2016,06,19,04,14,10.80
2016,06,19,04,15,10.80
2016,06,19,04,16,10.80
2016,06,19,04,17,10.80
2016,06,19,04,18,10.80
2016,06,19,04,19,10.80
2016,06,19,04,20,10.80
2016,06,19,04,21,10.80
2016,06,19,04,22,10.80
2016,06,19,04,23,10.80
2016,06,19,04,24,10.70
2016,06,19,04,25,10.70
2016,06,19,04,26,10.70
2016,06,19,04,27,10.70
2016,06,19,04,28,10.70
2016,06,19,04,29,10.70
2016,06,19,04,30,10.70
2016,06,19,04,31,10.70
2016,06,19,04,32,10.70
2016,06,19,04,33,10.70
2016,06,19,04,34,10.70
2016,06,19,04,35,10.70
2016,06,19,04,36,10.70
2016,06,19,04,37,10.70
2016,06,19,04,38,10.70
2016,06,19,04,39,10.70
2016,06,19,04,40,10.70
2016,06,19,04,41,10.70
2016,06,19,04,42,10.70
2016,06,19,04,43,10.70
2016,06,19,04,44,10.70
2016,06,19,04,45,10.70
2016,06,19,04,46,10.70
2016,06,19,04,47,10.70
2016,06,19,04,48,10.70
2016,06,19,04,49,10.80
2016,06,19,04,50,10.80
2016,06,19,04,51,10.80
2016,06,19,04,52,10.80
2016,06,19,04,53,10.80
2016,06,19,04,54,10.80
2016,06,19,04,55,10.80
2016,06,19,04,56,10.80
2016,06,19,04,57,10.80
2016,06,19,04,58,10.80
2016,06,19,04,59,10.80
2016,06,19,05,00,10.80
2016,06,19,05,01,10.80
2016,06,19,05,02,10.80
2016,06,19,05,03,10.80
2016,06,19,05,04,10.90
2016,06,19,05,05,10.90
2016,06,19,05,06,10.90
2016,06,19,05,07,10.90
2016,06,19,05,08,10.90
2016,06,19,05,09,10.90
2016,06,19,05,10,10.90
2016,06,19,05,11,10.90
2016,06,19,05,12,10.90
2016,06,19,05,13,10.90
2016,06,19,05,14,10.90
2016,06,19,05,15,10.90
2016,06,19,05,16,10.90
2016,06,19,05,17,10.90
2016,06,19,05,18,10.90
2016,06,19,05,19,11.00
2016,06,19,05,20,11.00
2016,06,19,05,21,11.00
2016,06,19,05,22,11.00
2016,06,19,05,23,11.00
2016,06,19,05,24,11.00
2016,06,19,05,25,11.00
2016,06,19,05,26,11.00
2016,06,19,05,27,11.00
2016,06,19,05,28,11.00
2016,06,19,05,29,11.00
2016,06,19,05,30,11.00
2016,06,19,05,31,11.00
2016,06,19,05,32,11.00
2016,06,19,05,33,11.00
2016,06,19,05,34,11.00
2016,06,19,05,35,11.00
2016,06,19,05,36,11.00
2016,06,19,05,37,11.00
2016,06,19,05,38,11.00
2016,06,19,05,39,11.00
2016,06,19,05,40,11.00
2016,06,19,05,41,11.00
2016,06,19,05,42,11.00
2016,06,19,05,43,11.00
2016,06,19,05,44,11.00
2016,06,19,05,45,11.00
2016,06,19,05,46,11.00
2016,06,19,05,47,11.00
2016,06,19,05,48,11.00
2016,06,19,05,49,11.00
2016,06,19,05,50,11.00
2016,06,19,05,51,11.00
2016,06,19,05,52,11.00
2016,06,19,05,53,11.00
2016,06,19,05,54,11.00
2016,06,19,05,55,11.00
2016,06,19,05,56,11.00
2016,06,19,05,57,11.00
2016,06,19,05,58,11.00
2016,06,19,05,59,11.00
2016,06,19,06,00,11.00
2016,06,19,06,01,11.00
2016,06,19,06,02,11.00
2016,06,19,06,03,11.00
2016,06,19,06,04,11.00
2016,06,19,06,05,11.00
2016,06,19,06,06,11.00
2016,06,19,06,07,11.00
2016,06,19,06,08,11.10
2016,06,19,06,09,11.10
2016,06,19,06,10,11.10
2016,06,19,06,11,11.10
2016,06,19,06,12,11.10
2016,06,19,06,13,11.10
2016,06,19,06,14,11.10
2016,06,19,06,15,11.20
2016,06,19,06,16,11.20
2016,06,19,06,17,11.20
2016,06,19,06,18,11.20
2016,06,19,06,19,11.20
2016,06,19,06,20,11.20
2016,06,19,06,21,11.20
2016,06,19,06,22,11.20
2016,06,19,06,23,11.30
2016,06,19,06,24,11.30
2016,06,19,06,25,11.30
2016,06,19,06,26,11.30
2016,06,19,06,27,11.30
2016,06,19,06,28,11.30
2016,06,19,06,29,11.30
2016,06,19,06,30,11.30
2016,06,19,06,31,11.30
2016,06,19,06,32,11.30
2016,06,19,06,33,11.30
2016,06,19,06,34,11.40
2016,06,19,06,35,11.40
2016,06,19,06,36,11.40
2016,06,19,06,37,11.40
2016,06,19,06,38,11.40
2016,06,19,06,39,11.40
2016,06,19,06,40,11.40
2016,06,19,06,41,11.40
2016,06,19,06,42,11.40
2016,06,19,06,43,11.40
2016,06,19,06,44,11.40
2016,06,19,06,45,11.40
2016,06,19,06,46,11.40
2016,06,19,06,47,11.40
2016,06,19,06,48,11.50
2016,06,19,06,49,11.40
2016,06,19,06,50,11.40
2016,06,19,06,51,11.50
2016,06,19,06,52,11.50
2016,06,19,06,53,11.50
2016,06,19,06,54,11.50
2016,06,19,06,55,11.50
2016,06,19,06,56,11.60
2016,06,19,06,57,11.60
2016,06,19,06,58,11.60
2016,06,19,06,59,11.60
2016,06,19,07,00,11.60
2016,06,19,07,01,11.60
2016,06,19,07,02,11.60
2016,06,19,07,03,11.60
2016,06,19,07,04,11.70
2016,06,19,07,05,11.70
2016,06,19,07,06,11.70
2016,06,19,07,07,11.70
2016,06,19,07,08,11.80
2016,06,19,07,09,11.80
2016,06,19,07,10,11.80
2016,06,19,07,11,11.80
2016,06,19,07,12,11.80
2016,06,19,07,13,11.80
2016,06,19,07,14,11.80
2016,06,19,07,15,11.80
2016,06,19,07,16,11.90
2016,06,19,07,17,11.90
2016,06,19,07,18,11.90
2016,06,19,07,19,11.90
2016,06,19,07,20,11.90
2016,06,19,07,21,11.90
2016,06,19,07,22,11.90
2016,06,19,07,23,11.90
2016,06,19,07,24,11.90
2016,06,19,07,25,11.90
2016,06,19,07,26,11.90
2016,06,19,07,27,11.90
2016,06,19,07,28,11.90
2016,06,19,07,29,11.90
2016,06,19,07,30,11.90
2016,06,19,07,31,11.90
2016,06,19,07,32,11.90
2016,06,19,07,33,11.90
2016,06,19,07,34,11.90
2016,06,19,07,35,11.90
2016,06,19,07,36,12.00
2016,06,19,07,37,12.00
2016,06,19,07,38,12.00
2016,06,19,07,39,12.10
2016,06,19,07,40,12.10
2016,06,19,07,41,12.10
2016,06,19,07,42,12.20
2016,06,19,07,43,12.20
2016,06,19,07,44,12.20
2016,06,19,07,45,12.30
2016,06,19,07,46,12.30
2016,06,19,07,47,12.30
2016,06,19,07,48,12.30
2016,06,19,07,49,12.30
2016,06,19,07,50,12.30
2016,06,19,07,51,12.40
2016,06,19,07,52,12.40
2016,06,19,07,53,12.40
2016,06,19,07,54,12.40
2016,06,19,07,55,12.40
2016,06,19,07,56,12.40
2016,06,19,07,57,12.40
2016,06,19,07,58,12.40
2016,06,19,07,59,12.40
2016,06,19,08,00,12.50
2016,06,19,08,01,12.50
2016,06,19,08,02,12.50
2016,06,19,08,03,12.60
2016,06,19,08,04,12.70
2016,06,19,08,05,12.70
2016,06,19,08,06,12.80
2016,06,19,08,07,12.90
2016,06,19,08,08,13.00
2016,06,19,08,09,13.10
2016,06,19,08,10,13.10
2016,06,19,08,11,13.20
2016,06,19,08,12,13.30
2016,06,19,08,13,13.40
2016,06,19,08,14,13.40
2016,06,19,08,15,13.50
2016,06,19,08,16,13.60
2016,06,19,08,17,13.60
2016,06,19,08,18,13.70
2016,06,19,08,19,13.80
2016,06,19,08,20,13.80
2016,06,19,08,21,13.90
2016,06,19,08,22,14.00
2016,06,19,08,23,14.10
2016,06,19,08,24,14.10
2016,06,19,08,25,14.20
2016,06,19,08,26,14.20
2016,06,19,08,27,14.20
2016,06,19,08,28,14.20
2016,06,19,08,29,14.20
2016,06,19,08,30,14.20
2016,06,19,08,31,14.20
2016,06,19,08,32,14.20
2016,06,19,08,33,14.20
2016,06,19,08,34,14.20
2016,06,19,08,35,14.10
2016,06,19,08,36,14.10
2016,06,19,08,37,14.10
2016,06,19,08,38,14.10
2016,06,19,08,39,14.00
2016,06,19,08,40,14.00
2016,06,19,08,41,14.00
2016,06,19,08,42,13.90
2016,06,19,08,43,13.90
2016,06,19,08,44,13.90
2016,06,19,08,45,13.90
2016,06,19,08,46,13.90
2016,06,19,08,47,13.90
2016,06,19,08,48,13.90
2016,06,19,08,49,14.00
2016,06,19,08,50,14.10
2016,06,19,08,51,14.10
2016,06,19,08,52,14.20
2016,06,19,08,53,14.20
2016,06,19,08,54,14.30
2016,06,19,08,55,14.30
2016,06,19,08,56,14.40
2016,06,19,08,57,14.50
2016,06,19,08,58,14.60
2016,06,19,08,59,14.70
2016,06,19,09,00,14.90
2016,06,19,09,01,15.00
2016,06,19,09,02,15.00
2016,06,19,09,03,15.10
2016,06,19,09,04,15.20
2016,06,19,09,05,15.30
2016,06,19,09,06,15.40
2016,06,19,09,07,15.50
2016,06,19,09,08,15.60
2016,06,19,09,09,15.60
2016,06,19,09,10,15.60
2016,06,19,09,11,15.60
2016,06,19,09,12,15.60
2016,06,19,09,13,15.70
2016,06,19,09,14,15.80
2016,06,19,09,15,15.80
2016,06,19,09,16,15.90
2016,06,19,09,17,15.90
2016,06,19,09,18,15.80
2016,06,19,09,19,15.70
2016,06,19,09,20,15.70
2016,06,19,09,21,15.50
2016,06,19,09,22,15.40
2016,06,19,09,23,15.40
2016,06,19,09,24,15.40
2016,06,19,09,25,15.40
2016,06,19,09,26,15.40
2016,06,19,09,27,15.30
2016,06,19,09,28,15.30
2016,06,19,09,29,15.20
2016,06,19,09,30,15.10
2016,06,19,09,31,15.00
2016,06,19,09,32,15.00
2016,06,19,09,33,15.00
2016,06,19,09,34,15.00
2016,06,19,09,35,15.00
2016,06,19,09,36,15.00
2016,06,19,09,37,15.00
2016,06,19,09,38,15.10
2016,06,19,09,39,15.20
2016,06,19,09,40,15.30
2016,06,19,09,41,15.30
2016,06,19,09,42,15.30
2016,06,19,09,43,15.30
2016,06,19,09,44,15.30
2016,06,19,09,45,15.30
2016,06,19,09,46,15.30
2016,06,19,09,47,15.30
2016,06,19,09,48,15.30
2016,06,19,09,49,15.20
2016,06,19,09,50,15.20
2016,06,19,09,51,15.30
2016,06,19,09,52,15.20
2016,06,19,09,53,15.20
2016,06,19,09,54,15.20
2016,06,19,09,55,15.20
2016,06,19,09,56,15.20
2016,06,19,09,57,15.20
2016,06,19,09,58,15.10
2016,06,19,09,59,15.10
2016,06,19,10,00,15.10
2016,06,19,10,01,15.10
2016,06,19,10,02,15.10
2016,06,19,10,03,15.10
2016,06,19,10,04,15.20
2016,06,19,10,05,15.30
2016,06,19,10,06,15.40
2016,06,19,10,07,15.40
2016,06,19,10,08,15.50
2016,06,19,10,09,15.50
2016,06,19,10,10,15.50
2016,06,19,10,11,15.40
2016,06,19,10,12,15.30
2016,06,19,10,13,15.30
2016,06,19,10,14,15.10
2016,06,19,10,15,15.00
2016,06,19,10,16,15.00
2016,06,19,10,17,15.00
2016,06,19,10,18,15.00
2016,06,19,10,19,15.00
2016,06,19,10,20,15.00
2016,06,19,10,21,15.00
2016,06,19,10,22,15.00
2016,06,19,10,23,15.00
2016,06,19,10,24,15.10
2016,06,19,10,25,15.00
2016,06,19,10,26,15.00
2016,06,19,10,27,15.00
2016,06,19,10,28,15.00
2016,06,19,10,29,15.00
2016,06,19,10,30,15.00
2016,06,19,10,31,15.00
2016,06,19,10,32,15.00
2016,06,19,10,33,15.00
2016,06,19,10,34,15.00
2016,06,19,10,35,15.00
2016,06,19,10,36,15.00
2016,06,19,10,37,15.00
2016,06,19,10,38,15.00
2016,06,19,10,39,15.10
2016,06,19,10,40,15.20
2016,06,19,10,41,15.30
2016,06,19,10,42,15.30
2016,06,19,10,43,15.40
2016,06,19,10,44,15.50
2016,06,19,10,45,15.60
2016,06,19,10,46,15.60
2016,06,19,10,47,15.70
2016,06,19,10,48,15.70
2016,06,19,10,49,15.80
2016,06,19,10,50,15.70
2016,06,19,10,51,15.60
2016,06,19,10,52,15.60
2016,06,19,10,53,15.70
2016,06,19,10,54,15.70
2016,06,19,10,55,15.70
2016,06,19,10,56,15.70
2016,06,19,10,57,15.70
2016,06,19,10,58,15.60
2016,06,19,10,59,15.60
2016,06,19,11,00,15.50
2016,06,19,11,01,15.60
2016,06,19,11,02,15.60
2016,06,19,11,03,15.70
2016,06,19,11,04,15.70
2016,06,19,11,05,15.70
2016,06,19,11,06,15.80
2016,06,19,11,07,15.80
2016,06,19,11,08,15.80
2016,06,19,11,09,15.80
2016,06,19,11,10,15.80
2016,06,19,11,11,15.90
2016,06,19,11,12,15.90
2016,06,19,11,13,16.00
2016,06,19,11,14,16.00
2016,06,19,11,15,16.10
2016,06,19,11,16,16.20
2016,06,19,11,17,16.20
2016,06,19,11,18,16.20
2016,06,19,11,19,16.20
2016,06,19,11,20,16.20
2016,06,19,11,21,16.20
2016,06,19,11,22,16.20
2016,06,19,11,23,16.00
2016,06,19,11,24,16.00
2016,06,19,11,25,16.00
2016,06,19,11,26,16.00
2016,06,19,11,27,16.00
2016,06,19,11,28,16.00
2016,06,19,11,29,16.00
2016,06,19,11,30,16.00
2016,06,19,11,31,16.10
2016,06,19,11,32,16.10
2016,06,19,11,33,16.10
2016,06,19,11,34,16.10
2016,06,19,11,35,16.10
2016,06,19,11,36,16.20
2016,06,19,11,37,16.20
2016,06,19,11,38,16.20
2016,06,19,11,39,16.20
2016,06,19,11,40,16.20
2016,06,19,11,41,16.10
2016,06,19,11,42,16.10
2016,06,19,11,43,16.10
2016,06,19,11,44,16.10
2016,06,19,11,45,16.10
2016,06,19,11,46,16.10
2016,06,19,11,47,16.20
2016,06,19,11,48,16.20
2016,06,19,11,49,16.30
2016,06,19,11,50,16.30
2016,06,19,11,51,16.30
2016,06,19,11,52,16.30
2016,06,19,11,53,16.40
2016,06,19,11,54,16.40
2016,06,19,11,55,16.40
2016,06,19,11,56,16.40
2016,06,19,11,57,16.40
2016,06,19,11,58,16.40
2016,06,19,11,59,16.40
2016,06,19,12,00,16.40
2016,06,19,12,01,16.40
2016,06,19,12,02,16.40
2016,06,19,12,03,16.40
2016,06,19,12,04,16.40
2016,06,19,12,05,16.30
2016,06,19,12,06,16.30
2016,06,19,12,07,16.30
2016,06,19,12,08,16.30
2016,06,19,12,09,16.30
2016,06,19,12,10,16.30
2016,06,19,12,11,16.30
2016,06,19,12,12,16.40
2016,06,19,12,13,16.50
2016,06,19,12,14,16.60
2016,06,19,12,15,16.60
2016,06,19,12,16,16.70
2016,06,19,12,17,16.70
2016,06,19,12,18,16.70
2016,06,19,12,19,16.70
2016,06,19,12,20,16.80
2016,06,19,12,21,16.90
2016,06,19,12,22,17.00
2016,06,19,12,23,17.10
2016,06,19,12,24,17.20
2016,06,19,12,25,17.20
2016,06,19,12,26,17.30
2016,06,19,12,27,17.40
2016,06,19,12,28,17.50
2016,06,19,12,29,17.60
2016,06,19,12,30,17.60
2016,06,19,12,31,17.60
2016,06,19,12,32,17.80
2016,06,19,12,33,17.90
2016,06,19,12,34,18.00
2016,06,19,12,35,18.10
2016,06,19,12,36,18.10
2016,06,19,12,37,18.20
2016,06,19,12,38,18.20
2016,06,19,12,39,18.30
2016,06,19,12,40,18.30
2016,06,19,12,41,18.10
2016,06,19,12,42,18.10
2016,06,19,12,43,18.10
2016,06,19,12,44,18.00
2016,06,19,12,45,18.00
2016,06,19,12,46,18.10
2016,06,19,12,47,18.00
2016,06,19,12,48,17.90
2016,06,19,12,49,17.90
2016,06,19,12,50,17.70
2016,06,19,12,51,17.70
2016,06,19,12,52,17.80
2016,06,19,12,53,17.90
2016,06,19,12,54,17.90
2016,06,19,12,55,17.90
2016,06,19,12,56,17.90
2016,06,19,12,57,18.00
2016,06,19,12,58,18.10
2016,06,19,12,59,18.10
2016,06,19,13,00,18.20
2016,06,19,13,01,18.20
2016,06,19,13,02,18.20
2016,06,19,13,03,18.10
2016,06,19,13,04,18.00
2016,06,19,13,05,17.90
2016,06,19,13,06,17.90
2016,06,19,13,07,18.00
2016,06,19,13,08,18.00
2016,06,19,13,09,18.10
2016,06,19,13,10,18.10
2016,06,19,13,11,18.10
2016,06,19,13,12,18.00
2016,06,19,13,13,18.00
2016,06,19,13,14,18.00
2016,06,19,13,15,18.00
2016,06,19,13,16,18.10
2016,06,19,13,17,18.10
2016,06,19,13,18,18.10
2016,06,19,13,19,18.10
2016,06,19,13,20,18.10
2016,06,19,13,21,18.20
2016,06,19,13,22,18.20
2016,06,19,13,23,18.30
2016,06,19,13,24,18.30
2016,06,19,13,25,18.30
2016,06,19,13,26,18.30
2016,06,19,13,27,18.30
2016,06,19,13,28,18.40
2016,06,19,13,29,18.40
2016,06,19,13,30,18.50
2016,06,19,13,31,18.50
2016,06,19,13,32,18.60
2016,06,19,13,33,18.60
2016,06,19,13,34,18.70
2016,06,19,13,35,18.80
2016,06,19,13,36,18.90
2016,06,19,13,37,18.90
2016,06,19,13,38,19.00
2016,06,19,13,39,19.00
2016,06,19,13,40,19.10
2016,06,19,13,41,19.10
2016,06,19,13,42,18.90
2016,06,19,13,43,18.70
2016,06,19,13,44,18.60
2016,06,19,13,45,18.50
2016,06,19,13,46,18.40
2016,06,19,13,47,18.30
2016,06,19,13,48,18.20
2016,06,19,13,49,18.20
2016,06,19,13,50,18.00
2016,06,19,13,51,17.90
2016,06,19,13,52,17.80
2016,06,19,13,53,17.80
2016,06,19,13,54,17.90
2016,06,19,13,55,18.00
2016,06,19,13,56,18.10
2016,06,19,13,57,18.20
2016,06,19,13,58,18.20
2016,06,19,13,59,18.30
2016,06,19,14,00,18.30
2016,06,19,14,01,18.40
2016,06,19,14,02,18.40
2016,06,19,14,03,18.40
2016,06,19,14,04,18.50
2016,06,19,14,05,18.50
2016,06,19,14,06,18.40
2016,06,19,14,07,18.40
2016,06,19,14,08,18.30
2016,06,19,14,09,18.40
2016,06,19,14,10,18.40
2016,06,19,14,11,18.40
2016,06,19,14,12,18.40
2016,06,19,14,13,18.40
2016,06,19,14,14,18.30
2016,06,19,14,15,18.30
2016,06,19,14,16,18.20
2016,06,19,14,17,18.10
2016,06,19,14,18,18.10
2016,06,19,14,19,18.20
2016,06,19,14,20,18.10
2016,06,19,14,21,18.10
2016,06,19,14,22,18.20
2016,06,19,14,23,18.20
2016,06,19,14,24,18.20
2016,06,19,14,25,18.20
2016,06,19,14,26,18.20
2016,06,19,14,27,18.20
2016,06,19,14,28,18.20
2016,06,19,14,29,18.10
2016,06,19,14,30,18.10
2016,06,19,14,31,18.10
2016,06,19,14,32,18.10
2016,06,19,14,33,18.10
2016,06,19,14,34,18.20
2016,06,19,14,35,18.30
2016,06,19,14,36,18.40
2016,06,19,14,37,18.40
2016,06,19,14,38,18.40
2016,06,19,14,39,18.50
2016,06,19,14,40,18.50
2016,06,19,14,41,18.60
2016,06,19,14,42,18.60
2016,06,19,14,43,18.60
2016,06,19,14,44,18.50
2016,06,19,14,45,18.50
2016,06,19,14,46,18.50
2016,06,19,14,47,18.60
2016,06,19,14,48,18.60
2016,06,19,14,49,18.70
2016,06,19,14,50,18.80
2016,06,19,14,51,18.90
2016,06,19,14,52,19.00
2016,06,19,14,53,19.00
2016,06,19,14,54,19.10
2016,06,19,14,55,19.20
2016,06,19,14,56,19.30
2016,06,19,14,57,19.30
2016,06,19,14,58,19.30
2016,06,19,14,59,19.30
2016,06,19,15,00,19.30
2016,06,19,15,01,19.30
2016,06,19,15,02,19.30
2016,06,19,15,03,19.30
2016,06,19,15,04,19.30
2016,06,19,15,05,19.30
2016,06,19,15,06,19.30
2016,06,19,15,07,19.20
2016,06,19,15,08,19.20
2016,06,19,15,09,19.20
2016,06,19,15,10,19.20
2016,06,19,15,11,19.30
2016,06,19,15,12,19.30
2016,06,19,15,13,19.30
2016,06,19,15,14,19.20
2016,06,19,15,15,19.20
2016,06,19,15,16,19.20
2016,06,19,15,17,19.20
2016,06,19,15,18,19.20
2016,06,19,15,19,19.30
2016,06,19,15,20,19.30
2016,06,19,15,21,19.20
2016,06,19,15,22,19.20
2016,06,19,15,23,19.20
2016,06,19,15,24,19.30
2016,06,19,15,25,19.30
2016,06,19,15,26,19.30
2016,06,19,15,27,19.40
2016,06,19,15,28,19.50
2016,06,19,15,29,19.50
2016,06,19,15,30,19.60
2016,06,19,15,31,19.50
2016,06,19,15,32,19.50
2016,06,19,15,33,19.40
2016,06,19,15,34,19.40
2016,06,19,15,35,19.40
2016,06,19,15,36,19.40
2016,06,19,15,37,19.40
2016,06,19,15,38,19.40
2016,06,19,15,39,19.40
2016,06,19,15,40,19.40
2016,06,19,15,41,19.50
2016,06,19,15,42,19.60
2016,06,19,15,43,19.60
2016,06,19,15,44,19.70
2016,06,19,15,45,19.70
2016,06,19,15,46,19.60
2016,06,19,15,47,19.50
2016,06,19,15,48,19.50
2016,06,19,15,49,19.40
2016,06,19,15,50,19.50
2016,06,19,15,51,19.60
2016,06,19,15,52,19.60
2016,06,19,15,53,19.70
2016,06,19,15,54,19.80
2016,06,19,15,55,19.80
2016,06,19,15,56,19.80
2016,06,19,15,57,19.80
2016,06,19,15,58,19.80
2016,06,19,15,59,19.70
2016,06,19,16,00,19.70
2016,06,19,16,01,19.60
2016,06,19,16,02,19.50
2016,06,19,16,03,19.50
2016,06,19,16,04,19.40
2016,06,19,16,05,19.30
2016,06,19,16,06,19.30
2016,06,19,16,07,19.30
2016,06,19,16,08,19.20
2016,06,19,16,09,19.20
2016,06,19,16,10,19.20
2016,06,19,16,11,19.10
2016,06,19,16,12,19.10
2016,06,19,16,13,19.10
2016,06,19,16,14,19.10
2016,06,19,16,15,19.10
2016,06,19,16,16,19.10
2016,06,19,16,17,19.10
2016,06,19,16,18,19.10
2016,06,19,16,19,19.20
2016,06,19,16,20,19.20
2016,06,19,16,21,19.20
2016,06,19,16,22,19.10
2016,06,19,16,23,19.10
2016,06,19,16,24,19.00
2016,06,19,16,25,19.00
2016,06,19,16,26,19.10
2016,06,19,16,27,19.10
2016,06,19,16,28,19.10
2016,06,19,16,29,19.10
2016,06,19,16,30,19.10
2016,06,19,16,31,19.10
2016,06,19,16,32,19.00
2016,06,19,16,33,19.00
2016,06,19,16,34,18.90
2016,06,19,16,35,18.90
2016,06,19,16,36,19.00
2016,06,19,16,37,19.00
2016,06,19,16,38,19.10
2016,06,19,16,39,19.10
2016,06,19,16,40,19.20
2016,06,19,16,41,19.30
2016,06,19,16,42,19.30
2016,06,19,16,43,19.40
2016,06,19,16,44,19.40
2016,06,19,16,45,19.30
2016,06,19,16,46,19.30
2016,06,19,16,47,19.20
2016,06,19,16,48,19.20
2016,06,19,16,49,19.10
2016,06,19,16,50,19.00
2016,06,19,16,51,19.00
2016,06,19,16,52,19.00
2016,06,19,16,53,19.00
2016,06,19,16,54,19.00
2016,06,19,16,55,19.10
2016,06,19,16,56,19.10
2016,06,19,16,57,19.20
2016,06,19,16,58,19.20
2016,06,19,16,59,19.30
2016,06,19,17,00,19.30
2016,06,19,17,01,19.30
2016,06,19,17,02,19.30
2016,06,19,17,03,19.30
2016,06,19,17,04,19.20
2016,06,19,17,05,19.20
2016,06,19,17,06,19.20
2016,06,19,17,07,19.20
2016,06,19,17,08,19.20
2016,06,19,17,09,19.10
2016,06,19,17,10,19.10
2016,06,19,17,11,19.10
2016,06,19,17,12,19.00
2016,06,19,17,13,19.00
2016,06,19,17,14,19.00
2016,06,19,17,15,19.00
2016,06,19,17,16,19.10
2016,06,19,17,17,19.10
2016,06,19,17,18,19.10
2016,06,19,17,19,19.10